Simultaneous Nadir Overpasses (SNOs) Predictions

Prediction of SNOs between GOES-16 and METOP-B Satellite Orbit:

Table of predicted SNOs for the next 14.0 days since TLE Epoch: 1/6/2024
Index Date Time (GOES-16) GOES-16 Lat,Lon METOP-B Lat,Lon Distance(km) Time Diff (sec)
1 01/06/2024 14:41:51 -0.02, -75.23 0.71, -78.41 362.87 80
2 01/07/2024 14:18:34 -0.02, -75.23 -0.42, -73.43 204.77 80
3 01/09/2024 02:40:19 0.02, -75.21 -0.62, -78.05 324.09 80
4 01/10/2024 02:17:02 0.03, -75.21 0.51, -73.08 243.55 80
5 01/11/2024 14:38:37 -0.02, -75.24 0.52, -77.66 275.52 80
6 01/12/2024 14:15:21 -0.03, -75.25 -0.62, -72.68 292.55 80
7 01/14/2024 02:37:05 0.02, -75.23 -0.42, -77.30 235.38 80
8 01/15/2024 02:13:48 0.02, -75.24 0.66, -72.32 333.24 80
9 01/16/2024 14:35:23 -0.01, -75.29 0.36, -76.90 184.22 80
10 01/17/2024 14:12:07 -0.01, -75.30 -0.78, -71.93 384.82 80
11 01/19/2024 02:33:51 0.01, -75.30 -0.24, -76.55 141.85 80
12 01/20/2024 02:10:33 0.02, -75.31 0.84, -71.56 427.34 80
